• In Czech Republic
  • List of Countries
  • For 7 days
  • Water Temperature
  • Satellite Maps
  • Weather Map
  • Weather Widgets
  • user-avatar
    Login

    Hourly Weather Graz

    Today, 11 December, Monday

    Time Temperature Precipitation Wind Pressure Humidity
    00:00 +1°C° 0 mm 2 mps 710 mmHg 90%
    01:00 +2°C° 0 mm 2 mps 710 mmHg 92%
    02:00 +2°C° 0 mm 2 mps 709 mmHg 92%
    03:00 +2°C° 0 mm 2 mps 709 mmHg 93%
    04:00 +3°C° 0 mm 2 mps 708 mmHg 93%
    05:00 +3°C° 0 mm 2 mps 708 mmHg 93%
    06:00 +3°C° 0 mm 3 mps 708 mmHg 92%
    07:00 +4°C° 0 mm 3 mps 708 mmHg 91%
    08:00 +5°C° 0.1 mm 3 mps 708 mmHg 92%
    09:00 +5°C° 0.1 mm 3 mps 708 mmHg 92%
    10:00 +7°C° 0.1 mm 3 mps 708 mmHg 92%
    11:00 +8°C° 0.3 mm 3 mps 707 mmHg 93%
    12:00 +8°C° 0.3 mm 3 mps 707 mmHg 93%
    13:00 +8°C° 0.3 mm 3 mps 707 mmHg 93%
    14:00 +8°C° 0.4 mm 4 mps 707 mmHg 92%
    15:00 +8°C° 0.4 mm 4 mps 707 mmHg 91%
    16:00 +8°C° 0.4 mm 4 mps 708 mmHg 90%
    17:00 +8°C° 0.2 mm 4 mps 708 mmHg 90%
    18:00 +8°C° 0.2 mm 4 mps 708 mmHg 90%
    19:00 +8°C° 0.2 mm 4 mps 708 mmHg 90%
    20:00 +8°C° 0.1 mm 4 mps 709 mmHg 90%
    21:00 +8°C° 0.1 mm 4 mps 709 mmHg 90%
    22:00 +8°C° 0.1 mm 4 mps 709 mmHg 90%
    23:00 +7°C° 0 mm 4 mps 710 mmHg 90%

    Tomorrow, 12 December, Tuesday

    Time Temperature Precipitation Wind Pressure Humidity
    00:00 +7°C° 0 mm 4 mps 710 mmHg 90%
    01:00 +7°C° 0 mm 4 mps 710 mmHg 90%
    02:00 +7°C° 0 mm 4 mps 710 mmHg 90%
    03:00 +7°C° 0 mm 4 mps 711 mmHg 90%
    04:00 +7°C° 0 mm 4 mps 711 mmHg 89%
    05:00 +7°C° 0 mm 4 mps 712 mmHg 89%
    06:00 +8°C° 0 mm 4 mps 713 mmHg 89%
    07:00 +8°C° 0 mm 4 mps 713 mmHg 88%
    08:00 +9°C° 0.1 mm 3 mps 714 mmHg 89%
    09:00 +9°C° 0.1 mm 3 mps 715 mmHg 89%
    10:00 +9°C° 0.1 mm 2 mps 716 mmHg 90%
    11:00 +9°C° 0.6 mm 2 mps 717 mmHg 90%
    12:00 +8°C° 0.6 mm 2 mps 717 mmHg 90%
    13:00 +8°C° 0.6 mm 2 mps 717 mmHg 90%
    14:00 +7°C° 1 mm 2 mps 718 mmHg 90%
    15:00 +7°C° 1 mm 2 mps 718 mmHg 91%
    16:00 +6°C° 1 mm 2 mps 719 mmHg 92%
    17:00 +5°C° 0.8 mm 2 mps 720 mmHg 91%
    18:00 +4°C° 0.8 mm 2 mps 720 mmHg 91%
    19:00 +4°C° 0.8 mm 2 mps 721 mmHg 91%
    20:00 +3°C° 0.4 mm 2 mps 722 mmHg 90%
    21:00 +4°C° 0.4 mm 1 mps 723 mmHg 90%
    22:00 +4°C° 0.4 mm 1 mps 723 mmHg 90%
    23:00 +3°C° 0.7 mm 1 mps 724 mmHg 90%

    Day after tomorrow, 13 December, Wednesday

    Time Temperature Precipitation Wind Pressure Humidity
    00:00 +3°C° 0.7 mm 1 mps 724 mmHg 91%
    01:00 +3°C° 0.7 mm 1 mps 725 mmHg 91%
    02:00 +3°C° 0.8 mm 1 mps 725 mmHg 92%
    03:00 +3°C° 0.8 mm 1 mps 725 mmHg 92%
    04:00 +2°C° 0.8 mm 1 mps 725 mmHg 93%
    05:00 +1°C° 0.4 mm 0 mps 726 mmHg 93%
    06:00 +1°C° 0.4 mm 0 mps 726 mmHg 93%
    07:00 +1°C° 0.4 mm 0 mps 726 mmHg 93%
    08:00 +2°C° 0.2 mm 0 mps 727 mmHg 91%
    09:00 +3°C° 0.2 mm 1 mps 727 mmHg 90%
    10:00 +3°C° 0.2 mm 1 mps 727 mmHg 88%
    11:00 +4°C° 0.1 mm 1 mps 726 mmHg 87%
    12:00 +4°C° 0.1 mm 1 mps 726 mmHg 86%
    13:00 +3°C° 0.1 mm 2 mps 725 mmHg 85%
    14:00 +3°C° 0 mm 2 mps 725 mmHg 88%
    15:00 +2°C° 0 mm 2 mps 724 mmHg 90%
    16:00 +3°C° 0 mm 1 mps 723 mmHg 92%
    17:00 +2°C° 0 mm 1 mps 723 mmHg 93%
    18:00 +2°C° 0 mm 1 mps 723 mmHg 94%
    19:00 +1°C° 0 mm 1 mps 722 mmHg 95%
    20:00 +1°C° 0 mm 1 mps 722 mmHg 95%
    21:00 +1°C° 0 mm 1 mps 722 mmHg 95%
    22:00 +1°C° 0 mm 1 mps 721 mmHg 95%
    23:00 +1°C° 0 mm 1 mps 721 mmHg 95%

    14 December, Thursday

    Time Temperature Precipitation Wind Pressure Humidity
    00:00 +1°C° 0 mm 1 mps 720 mmHg 94%
    01:00 +1°C° 0 mm 1 mps 720 mmHg 94%
    02:00 +1°C° 0 mm 1 mps 720 mmHg 93%
    03:00 +1°C° 0 mm 1 mps 719 mmHg 92%
    04:00 +1°C° 0 mm 1 mps 719 mmHg 91%
    05:00 +1°C° 0 mm 1 mps 719 mmHg 91%
    06:00 +1°C° 0 mm 1 mps 719 mmHg 91%
    07:00 +1°C° 0 mm 1 mps 719 mmHg 90%
    08:00 +1°C° 0 mm 2 mps 718 mmHg 88%
    09:00 +2°C° 0 mm 2 mps 718 mmHg 86%
    10:00 +3°C° 0 mm 2 mps 718 mmHg 83%
    11:00 +4°C° 0 mm 2 mps 718 mmHg 83%
    12:00 +4°C° 0 mm 2 mps 717 mmHg 82%
    13:00 +5°C° 0 mm 2 mps 717 mmHg 82%
    14:00 +5°C° 0 mm 2 mps 716 mmHg 85%
    15:00 +5°C° 0 mm 1 mps 716 mmHg 87%
    16:00 +4°C° 0 mm 1 mps 715 mmHg 90%
    17:00 +4°C° 0 mm 1 mps 715 mmHg 91%
    18:00 +2°C° 0 mm 2 mps 715 mmHg 91%
    19:00 +2°C° 0 mm 2 mps 714 mmHg 92%
    20:00 +3°C° 0 mm 2 mps 714 mmHg 92%
    21:00 +3°C° 0 mm 2 mps 713 mmHg 92%
    22:00 +4°C° 0 mm 2 mps 713 mmHg 93%
    23:00 +3°C° 0 mm 3 mps 712 mmHg 92%

    15 December, Friday

    Time Temperature Precipitation Wind Pressure Humidity
    00:00 +4°C° 0 mm 3 mps 711 mmHg 91%
    01:00 +4°C° 0 mm 3 mps 711 mmHg 91%
    02:00 +4°C° 0 mm 3 mps 711 mmHg 91%
    03:00 +4°C° 0 mm 3 mps 711 mmHg 91%
    04:00 +5°C° 0 mm 3 mps 711 mmHg 91%
    05:00 +4°C° 0.2 mm 3 mps 712 mmHg 91%
    06:00 +5°C° 0.2 mm 2 mps 712 mmHg 91%
    07:00 +4°C° 0.2 mm 2 mps 713 mmHg 91%
    08:00 +4°C° 0.4 mm 2 mps 714 mmHg 91%
    09:00 +5°C° 0.4 mm 1 mps 714 mmHg 91%
    10:00 +5°C° 0.4 mm 1 mps 715 mmHg 91%
    11:00 +5°C° 0.8 mm 1 mps 715 mmHg 92%
    12:00 +4°C° 0.8 mm 1 mps 715 mmHg 92%
    13:00 +4°C° 0.8 mm 1 mps 715 mmHg 92%
    14:00 +4°C° 1.9 mm 1 mps 715 mmHg 93%
    15:00 +3°C° 1.9 mm 1 mps 714 mmHg 94%
    16:00 +3°C° 1.9 mm 1 mps 714 mmHg 95%
    17:00 +3°C° 2.2 mm 1 mps 714 mmHg 95%
    18:00 +2°C° 2.2 mm 1 mps 714 mmHg 96%
    19:00 +2°C° 2.2 mm 1 mps 714 mmHg 96%
    20:00 +2°C° 1.1 mm 1 mps 714 mmHg 96%
    21:00 +2°C° 1.1 mm 1 mps 714 mmHg 96%
    22:00 +2°C° 1.1 mm 1 mps 714 mmHg 96%
    23:00 +1°C° 0.9 mm 1 mps 714 mmHg 96%

    16 December, Saturday

    Time Temperature Precipitation Wind Pressure Humidity
    00:00 +1°C° 0.9 mm 1 mps 714 mmHg 96%
    01:00 +1°C° 0.9 mm 1 mps 715 mmHg 96%
    02:00 +1°C° 0.5 mm 1 mps 714 mmHg 95%
    03:00 +1°C° 0.5 mm 1 mps 714 mmHg 95%
    04:00 +1°C° 0.5 mm 1 mps 714 mmHg 95%
    05:00 +1°C° 0.3 mm 1 mps 715 mmHg 94%
    06:00 0°C° 0.3 mm 1 mps 715 mmHg 94%
    07:00 0°C° 0.3 mm 1 mps 715 mmHg 94%
    08:00 +1°C° 0.3 mm 1 mps 715 mmHg 93%
    09:00 -1°C° 0.3 mm 2 mps 716 mmHg 92%
    10:00 +1°C° 0.3 mm 2 mps 716 mmHg 92%
    11:00 +1°C° 0.1 mm 2 mps 716 mmHg 91%
    12:00 +2°C° 0.1 mm 2 mps 716 mmHg 91%
    13:00 +2°C° 0.1 mm 2 mps 716 mmHg 90%
    14:00 +2°C° 0.1 mm 2 mps 717 mmHg 90%
    15:00 +1°C° 0.1 mm 2 mps 717 mmHg 90%
    16:00 +1°C° 0.1 mm 2 mps 718 mmHg 89%
    17:00 -1°C° 0 mm 2 mps 718 mmHg 89%
    18:00 -1°C° 0 mm 2 mps 718 mmHg 89%
    19:00 -1°C° 0 mm 2 mps 719 mmHg 89%
    20:00 -2°C° 0 mm 2 mps 719 mmHg 89%
    21:00 -2°C° 0 mm 2 mps 720 mmHg 89%
    22:00 -2°C° 0 mm 2 mps 720 mmHg 89%
    23:00 -3°C° 0 mm 2 mps 720 mmHg 89%
    Show more